GIA408 WADD-WIII

Flight info

Callsign GIA408
Flight time N/A
Altitude 34000
Route OKANG T4 FARIZ T6 KURUS
Aircraft B738/M-SDE2E3FGHIRWXY/LB1

Departure

Time N/A
Airport Denpasar I Gusti Ngurah Rai International Airport (WADD)

Arrival

Time 2026-05-01 08:02
Airport Soekarno-Hatta International Airport (WIII)
Time Latitude Longitude Altitude Speed Heading
2026-05-01 07:23 -5.96486 109.82605 33837 ft 474 kts 271°
2026-05-01 07:24 -5.96478 109.72652 33836 ft 476 kts 271°
2026-05-01 07:24 -5.96471 109.65997 33836 ft 477 kts 271°
2026-05-01 07:25 -5.96464 109.59322 33837 ft 478 kts 271°
2026-05-01 07:25 -5.96456 109.52681 33839 ft 479 kts 271°
2026-05-01 07:26 -5.96447 109.45988 33837 ft 479 kts 271°
2026-05-01 07:26 -5.96437 109.39289 33837 ft 479 kts 271°
2026-05-01 07:27 -5.96426 109.32597 33838 ft 479 kts 271°
2026-05-01 07:27 -5.96415 109.25918 33833 ft 478 kts 271°
2026-05-01 07:28 -5.96403 109.19252 33833 ft 477 kts 271°
2026-05-01 07:28 -5.96390 109.12593 33831 ft 475 kts 271°
2026-05-01 07:29 -5.96376 109.05961 33833 ft 474 kts 271°
2026-05-01 07:29 -5.96362 108.99379 33833 ft 473 kts 271°
2026-05-01 07:30 -5.96347 108.92769 33833 ft 473 kts 271°
2026-05-01 07:30 -5.96331 108.86168 33829 ft 472 kts 271°
2026-05-01 07:31 -5.96314 108.79571 33830 ft 471 kts 271°
2026-05-01 07:32 -5.96269 108.63105 33370 ft 471 kts 271°
2026-05-01 07:32 -5.96259 108.59875 32794 ft 467 kts 271°
2026-05-01 07:33 -5.96240 108.53344 31414 ft 468 kts 271°
2026-05-01 07:33 -5.96229 108.50067 30704 ft 470 kts 271°
2026-05-01 07:33 -5.96215 108.43532 29586 ft 465 kts 270°
2026-05-01 07:34 -5.96213 108.40290 28997 ft 462 kts 270°
2026-05-01 07:34 -5.96210 108.33895 27894 ft 454 kts 271°
2026-05-01 07:34 -5.96208 108.30734 27360 ft 450 kts 271°
2026-05-01 07:35 -5.96205 108.27635 26840 ft 447 kts 271°
2026-05-01 07:35 -5.96202 108.24525 26320 ft 444 kts 271°
2026-05-01 07:35 -5.96199 108.21429 25796 ft 441 kts 271°
2026-05-01 07:35 -5.96195 108.18357 25256 ft 439 kts 271°
2026-05-01 07:36 -5.96191 108.15292 24726 ft 437 kts 271°
2026-05-01 07:36 -5.96187 108.12248 24198 ft 435 kts 271°
2026-05-01 07:36 -5.96182 108.09204 23679 ft 434 kts 271°
2026-05-01 07:36 -5.96178 108.06186 23357 ft 427 kts 271°
2026-05-01 07:37 -5.96170 108.00364 22911 ft 406 kts 271°
2026-05-01 07:37 -5.96166 107.97554 22605 ft 401 kts 271°
2026-05-01 07:37 -5.96165 107.94737 22102 ft 405 kts 271°
2026-05-01 07:38 -5.96166 107.91903 21611 ft 406 kts 271°
2026-05-01 07:38 -5.96167 107.89067 21116 ft 404 kts 270°
2026-05-01 07:38 -5.96169 107.83444 20141 ft 400 kts 270°
2026-05-01 07:39 -5.96169 107.80655 19642 ft 399 kts 270°
2026-05-01 07:39 -5.96169 107.77904 19161 ft 398 kts 270°
2026-05-01 07:39 -5.96168 107.72355 18178 ft 396 kts 270°
2026-05-01 07:40 -5.96168 107.69590 17633 ft 395 kts 270°
2026-05-01 07:40 -5.96167 107.66838 17133 ft 392 kts 270°
2026-05-01 07:40 -5.96167 107.64100 16641 ft 390 kts 270°
2026-05-01 07:40 -5.96167 107.61383 16162 ft 387 kts 270°
2026-05-01 07:41 -5.96167 107.58689 15689 ft 384 kts 270°
2026-05-01 07:41 -5.96168 107.56044 15225 ft 382 kts 270°
2026-05-01 07:41 -5.96169 107.50730 14279 ft 378 kts 270°
2026-05-01 07:42 -5.96169 107.48090 13805 ft 376 kts 270°
2026-05-01 07:42 -5.96169 107.45466 13304 ft 375 kts 270°
2026-05-01 07:42 -5.96169 107.42859 12827 ft 372 kts 269°
2026-05-01 07:42 -5.96168 107.40271 12356 ft 369 kts 269°
2026-05-01 07:43 -5.96168 107.37701 11899 ft 366 kts 269°
2026-05-01 07:43 -5.96168 107.35150 11450 ft 363 kts 269°
2026-05-01 07:43 -5.96165 107.30143 10608 ft 354 kts 269°
2026-05-01 07:44 -5.96159 107.25380 9925 ft 328 kts 269°
2026-05-01 07:44 -5.96152 107.21100 9842 ft 288 kts 269°
2026-05-01 07:45 -5.96150 107.19082 9281 ft 290 kts 269°
2026-05-01 07:45 -5.96148 107.17064 8814 ft 289 kts 269°
2026-05-01 07:45 -5.96146 107.15048 8330 ft 288 kts 269°
2026-05-01 07:45 -5.96143 107.13042 7846 ft 287 kts 269°
2026-05-01 07:46 -5.96141 107.11044 7375 ft 285 kts 268°
2026-05-01 07:46 -5.96461 107.09101 6889 ft 282 kts 249°
2026-05-01 07:47 -5.98633 107.03676 5853 ft 264 kts 246°
2026-05-01 07:47 -5.99309 107.01981 5538 ft 259 kts 246°
2026-05-01 07:47 -5.99966 107.00317 5231 ft 253 kts 246°
2026-05-01 07:47 -6.00604 106.98689 4945 ft 249 kts 246°
2026-05-01 07:48 -6.01875 106.95438 4376 ft 250 kts 247°
2026-05-01 07:48 -6.02420 106.93800 4088 ft 252 kts 262°
2026-05-01 07:48 -6.02483 106.92077 4038 ft 242 kts 270°
2026-05-01 07:49 -6.02451 106.90418 4015 ft 236 kts 270°
2026-05-01 07:49 -6.02355 106.86858 4029 ft 274 kts 270°
2026-05-01 07:49 -6.02303 106.84937 4014 ft 275 kts 270°
2026-05-01 07:50 -6.02251 106.83016 3999 ft 275 kts 270°
2026-05-01 07:50 -6.02151 106.79173 3992 ft 275 kts 270°
2026-05-01 07:50 -6.02100 106.77253 3996 ft 274 kts 270°
2026-05-01 07:51 -6.02191 106.75346 3998 ft 273 kts 262°
2026-05-01 07:51 -6.02441 106.73460 4005 ft 272 kts 261°
2026-05-01 07:51 -6.02712 106.71578 3996 ft 272 kts 261°
2026-05-01 07:52 -6.03267 106.67812 4005 ft 273 kts 259°
2026-05-01 07:52 -6.03740 106.65970 4003 ft 272 kts 252°
2026-05-01 07:52 -6.04320 106.64156 3993 ft 272 kts 251°
2026-05-01 07:53 -6.05504 106.60554 4003 ft 271 kts 250°
2026-05-01 07:53 -6.06098 106.58756 3995 ft 271 kts 250°
2026-05-01 07:53 -6.06694 106.56959 3998 ft 271 kts 250°
2026-05-01 07:53 -6.07290 106.55161 3990 ft 271 kts 250°
2026-05-01 07:54 -6.08468 106.51591 3985 ft 271 kts 251°
2026-05-01 07:55 -6.10250 106.46250 3160 ft 262 kts 251°
2026-05-01 07:55 -6.11401 106.42876 2879 ft 247 kts 250°
2026-05-01 07:56 -6.14226 106.39700 2618 ft 243 kts 189°
2026-05-01 07:56 -6.17532 106.40116 2414 ft 246 kts 146°
2026-05-01 07:57 -6.18640 106.41385 2320 ft 245 kts 114°
2026-05-01 07:57 -6.18779 106.44747 2156 ft 245 kts 81°
2026-05-01 07:58 -6.18269 106.48070 1999 ft 229 kts 81°
2026-05-01 07:58 -6.17359 106.50895 1957 ft 203 kts 66°
2026-05-01 07:59 -6.16286 106.53472 1953 ft 193 kts 67°
2026-05-01 07:59 -6.15293 106.55833 1636 ft 176 kts 66°
2026-05-01 08:00 -6.13671 106.59966 816 ft 150 kts 66°
2026-05-01 08:01 -6.12526 106.62834 299 ft 146 kts 63°
2026-05-01 08:01 -6.12144 106.63785 109 ft 146 kts 63°
2026-05-01 08:01 -6.11775 106.64695 42 ft 123 kts 69°
2026-05-01 08:02 -6.11444 106.65531 38 ft 27 kts 68°
2026-05-01 08:02 -6.11412 106.65722 38 ft 28 kts 89°
2026-05-01 08:03 -6.11483 106.65884 37 ft 9 kts 153°
2026-05-01 08:03 -6.11539 106.65912 37 ft 9 kts 153°
2026-05-01 08:03 -6.11541 106.66020 37 ft 8 kts 69°
2026-05-01 08:04 -6.11495 106.66133 36 ft 11 kts 67°
2026-05-01 08:04 -6.11433 106.66309 37 ft 9 kts 102°
2026-05-01 08:05 -6.11549 106.66375 37 ft 10 kts 158°
2026-05-01 08:05 -6.11584 106.66389 34 ft 1 kts 158°
2026-05-01 08:05 -6.11597 106.66394 36 ft 3 kts 160°
2026-05-01 08:06 -6.11646 106.66457 37 ft 11 kts 70°
2026-05-01 08:06 -6.11577 106.66638 37 ft 5 kts 92°
2026-05-01 08:07 -6.11644 106.66673 37 ft 5 kts 158°
2026-05-01 08:07 -6.11670 106.66684 37 ft 0 kts 158°